OICC

Details ICAO OICC (KSH)
Name SHAHID ASHRAFI ESFAHANI
Region Iran
Timezone Asia/Tehran (UTC+4.5)
Plans Departing 6
Arriving 12
Stats Elevation 4,301 ft / 1,311 m (AMSL)
Location 34.345852° 47.158132°
Runways 1
Magnetic Variation 4.693° E
Sunrise 2018-05-28 01:43:20 UTC / 2018-05-28 06:13:20 Local
Sunset 2018-05-28 15:56:48 UTC / 2018-05-28 20:26:48 Local
Advertisement - Login to hide

Runways

ID Width Length Bearing (true) Bearing (mag) Surface Threshold Offset Overrun Length
11 148 ft / 45 m 11,205 ft / 3,415 m 116.09° 111.40° Asphalt 1,437 ft / 438 m 0 ft / 0 m
29 148 ft / 45 m 11,205 ft / 3,415 m 296.11° 291.42° Asphalt 0 ft / 0 m 0 ft / 0 m

Approach Navaids

Runway Type Ident Frequency Range Bearing (true) Bearing (mag) Slope Elevation
29 Localiser IKMS 111.10 MHz 18 nm / 33 km 296.10° 291.41° - 4,307 ft / 1,313 m (AMSL)
29 Glidescope IKMS 111.10 MHz 10 nm / 19 km 296.10° 291.41° 3.00° 4,307 ft / 1,313 m (AMSL)
29 DME IKMS 111.10 MHz 18 nm / 33 km - - - 4,297 ft / 1,310 m (AMSL)

Map

Weather


0- 5 10 15 20 25 30 35+ Temperature / ° C

Clouds and Precipitation
Forecast for 2018-05-28 00:00 UTC. Updated an hour ago

Ground ~20,000 ft ~40,000 ft Winds

METAR

OICC 280000Z 12006KT CAVOK 16/07 Q1019 A3009

TAF

Not found

Frequencies

Recorded 126.80 MHz KERMANSHAH INFO
Tower 121.90 MHz KERMANSHAH TWR
Tower 122.45 MHz KERMANSHAH TWR
Warning: Do not use this data for real-world aviation or navigation. No guarantee of current accuracy is given.